Location: Marse
(42.1502°N, 110.9866°W)
Time: 20:35:30
(UTC+00:00)

QB50P2 - Pass Details

Date: 07 July 2022
Orbit: 590 x 605 km, 97.9° (Epoch: 11 August)

Event Time Altitude Azimuth Distance (km) Brightness Sun altitude
Rises 09:12:14 0° 7° (N) 2,864 ? -21.0°
Reaches altitude 10° 09:14:27 10° 2° (N) 1,958 ? -20.8°
Maximum altitude 09:18:34 51° 288° (WNW) 769 ? -20.5°
Enters shadow 09:19:18 45° 253° (WSW) 832 ? -20.4°
